Location: *
(37.1000°N, 15.1167°E)
Time: 15:12:13
(UTC+00:00)

Daily predictions for brighter satellites

Satellite Brightness Start Highest point End
(mag) Time Altitude Azimuth Time Altitude Azimuth Time Altitude Azimuth
Meteor 1-12 Rocket 4.3 17:15:03 10° S 17:20:47 85° E 17:26:27 10° N
Okean-O 4.4 17:16:49 10° SSW 17:20:55 38° W 17:25:04 10° NNW
SKYMED 2 4.2 17:18:03 10° N 17:22:21 63° WNW 17:26:38 10° SSW
Cosmos 2219 Rocket 2.2 17:18:20 10° NNW 17:23:57 79° ENE 17:29:34 10° SSE
Lacrosse 5 3.6 17:24:23 10° SE 17:26:29 13° ESE 17:28:34 10° E
FengYun 1-2 T 4.3 17:20:55 10° SSE 17:26:33 89° E 17:32:16 10° NNW
Meteor 2-15 Rocket 4.4 17:21:03 10° S 17:27:10 77° E 17:33:20 10° N
SL-16 R/B 4.0 17:25:05 10° NNE 17:27:39 13° NE 17:30:12 10° ENE
NOSS 0 Rocket 4.1 17:24:05 10° NNW 17:30:08 52° ENE 17:36:11 10° SE
Cosmos 1707 3.4 17:28:55 10° NNE 17:32:32 35° E 17:36:08 10° SE
Envisat 3.7 17:31:02 10° S 17:36:00 58° W 17:41:02 10° NNW
Cosmos 1371 Rocket 4.0 17:31:51 10° S 17:37:05 67° ESE 17:42:24 10° NNE
Cosmos 2082 4.4 17:33:36 10° SSE 17:38:32 31° ESE 17:43:30 10° NE
Cosmos 2154 Rocket 4.0 17:33:24 10° N 17:39:34 65° E 17:45:44 10° SSE
YAOGAN 1 2.7 17:37:12 10° S 17:41:30 78° WSW 17:45:51 10° NNW
Meteor 1-4 Rocket 3.8 17:39:35 10° NNE 17:42:16 20° ENE 17:43:59 15° ESE
YAOGAN 6 3.5 17:42:19 10° S 17:45:53 53° W 17:49:31 10° NNW
COSMOS 2428 3.2 17:42:41 10° NNW 17:48:18 63° WSW 17:53:53 10° S
GP-B 3.1 17:44:40 10° N 17:49:07 89° W 17:53:33 10° S
Cosmos 1892 Rocket 4.3 17:47:17 10° NNE 17:51:16 32° ENE 17:55:02 11° SE
FREGAT/IRIS 3.8 17:52:04 21° ENE 17:52:13 21° ENE 17:54:27 10° NNE
Cosmos 2227 Rocket 2.1 17:46:44 10° S 17:52:19 68° ESE 17:57:57 10° NNE
SL-4 R/B 3.6 17:54:04 10° SSE 17:56:02 15° SE 17:56:02 15° SE
Cosmos 2084 Rocket 4.2 17:53:45 10° SW 17:58:07 56° NW 18:02:31 10° NNE
Cosmos 2219 3.9 17:53:56 10° SW 17:59:35 60° WNW 18:05:17 10° NNE
CZ-2D R/B 3.2 17:56:02 10° SSE 17:59:49 88° W 18:03:38 10° NNW
Cosmos 2297 Rocket 2.2 17:56:39 10° SSW 18:02:19 88° ESE 18:07:59 10° NNE
CZ-2C R/B 3.9 17:59:23 10° NNE 18:03:36 43° E 18:07:48 10° S
SJ-6B 3.9 18:05:30 25° E 18:06:14 26° ENE 18:09:38 10° NNE
ADEOS Rocket 4.1 17:59:58 10° NNE 18:06:48 35° E 18:13:42 10° SSE
Cosmos 1190 Rocket 4.0 18:02:40 10° NNW 18:07:55 63° ENE 18:12:37 13° SSE
Cosmos 614 Rocket 3.9 18:02:52 10° NNW 18:08:04 69° ENE 18:13:02 11° SSE
Cosmos 1766 4.0 18:07:35 26° ESE 18:08:35 30° E 18:12:02 10° NNE
MONITOR-E 3.8 18:07:30 28° SSE 18:08:45 64° ENE 18:11:32 10° N
NOSS 3-4 (A) 4.0 18:02:23 10° NW 18:09:36 83° WSW 18:17:28 10° SSE
NOSS 3-4 (C) 4.0 18:02:29 10° NW 18:09:42 83° WSW 18:17:33 10° SSE
H-2A R/B 3.0 18:09:16 23° E 18:10:07 24° ENE 18:14:06 10° NNE
CZ-4 R/B 4.0 18:08:16 10° SSW 18:11:20 22° W 18:14:28 10° NW
Cosmos 1295 Rocket 4.5 18:11:06 10° N 18:17:16 86° W 18:23:21 10° S
Okean 1-7 Rocket 3.5 18:12:52 10° N 18:17:19 67° E 18:21:25 12° SSE
Ariane Rocket 3.2 18:13:15 10° S 18:18:17 73° WSW 18:23:23 10° NNW
HJ-1C 3.5 18:16:26 11° S 18:19:36 77° W 18:23:00 10° NNW
Cosmos 962 Rocket 4.5 18:13:28 10° N 18:19:51 87° E 18:26:13 10° S
Cosmos 405 Rocket 3.0 18:17:39 10° SSW 18:21:18 65° W 18:25:00 10° N
In-Cosmos 22 4.0 18:16:33 10° N 18:22:00 78° E 18:27:33 10° SSE
Cosmos 1455 Rocket 2.9 18:20:10 10° S 18:24:35 80° E 18:29:03 10° N
Cosmos 1544 Rocket 3.5 18:20:12 10° S 18:24:36 62° E 18:29:01 10° NNE
GENESIS II 4.2 18:20:46 10° NNW 18:24:50 64° ENE 18:25:47 47° ESE
Lacrosse 5 rocket 3.5 18:25:19 10° W 18:28:10 21° NW 18:31:05 10° NNE
PSLV R/B 4.1 18:25:50 10° WNW 18:28:09 32° N 18:28:09 32° N
BREEZE-M DEB (TANK) 4.1 18:17:01 10° WNW 18:28:25 46° NNE 18:29:55 33° ENE
MOS 1 4.2 18:23:37 10° SSE 18:29:18 86° ENE 18:35:02 10° NNW
ASTEX 1 3.6 18:26:38 10° N 18:31:31 71° W 18:36:22 10° SSW
Cosmos 389 Rocket 3.3 18:28:35 10° NNW 18:31:54 48° W 18:34:47 13° SSW
Cosmos 1674 3.9 18:29:09 10° N 18:31:14 27° NNE 18:31:14 27° NNE
USA 186 2.0 18:33:12 58° NE 18:33:12 58° NE 18:36:12 10° N
Cosmos 407 Rocket 3.9 18:29:52 10° NNW 18:34:55 62° WSW 18:39:42 11° S
Cosmos 1939 Rocket 4.4 18:32:20 10° SSW 18:35:51 34° W 18:39:24 10° NNW
Cosmos 1420 Rocket 3.9 18:32:03 10° SSW 18:37:20 86° ESE 18:42:42 10° NNE
ATLAS CENTAUR R/B 3.3 18:33:50 10° S 18:35:35 21° S 18:35:35 21° S
ISS -0.9 18:37:05 10° NW 18:38:35 12° NNW 18:40:03 10° N
Cosmos 2237 Rocket 2.6 18:33:03 10° NNW 18:38:42 64° WSW 18:43:30 14° S
Cosmos 1437 Rocket 3.4 18:37:03 10° N 18:39:44 40° NNE 18:39:44 40° NNE
DELTA 2 R/B (1) 3.7 18:37:24 10° W 18:42:59 68° N 18:44:50 42° ENE
ERBS 4.0 18:41:11 10° NNW 18:43:05 25° N 18:43:05 25° N
Cosmos 1140 Rocket 3.6 18:43:02 10° NNW 18:48:11 73° WSW 18:50:35 32° S
Meteor 1-24 Rocket 3.7 18:47:10 10° N 18:53:02 67° E 18:54:23 52° SE
Cosmos 1805 3.5 18:54:16 60° WSW 18:54:40 66° W 18:58:33 10° N
Cosmos 1954 Rocket 4.0 18:53:39 10° NNW 18:58:51 80° WSW 18:59:57 56° S
GEOS 3 Rocket 3.4 19:05:54 82° E 19:06:03 85° NE 19:11:12 10° NNW
Lacrosse 5 1.8 19:03:42 10° SW 19:08:27 78° WSW 19:08:27 78° WSW
SL-08 R/B 4.4 19:04:00 10° N 19:10:29 80° E 19:11:30 64° SSE
SL-16 R/B 2.0 19:06:51 10° NNW 19:12:34 90° ENE 19:12:43 85° SSE
SPOT 3 Rocket 4.2 19:19:19 42° SW 19:20:31 50° W 19:25:32 10° NNW
ARGOS 3.2 19:20:36 75° WSW 19:20:36 75° WSW 19:26:00 10° NNW
Cosmos 2366 rocket 4.4 19:14:50 10° NNW 19:21:05 61° W 19:24:13 30° SSW
Resurs 01 Rocket 3.5 19:26:29 24° N 19:26:29 24° N 19:28:15 10° N
CZ-2C R/B 3.8 19:30:52 49° N 19:30:52 49° N 19:34:52 10° N
H-2A R/B 3.4 19:49:53 33° W 19:49:53 33° W 19:53:53 10° NNW
ADEOS Rocket 4.4 19:45:06 10° N 19:52:15 47° WNW 19:59:34 10° SW
